CAPE
0 0 0 0 0 0 0 0 0 0 0 0 0 0 0 0 0 0 0 0 0 0 2 122 280 476 591 555 91 61 35 14 18 24 36 20 13 11 11 12 9 2 5
0 0 0 0 0 0 0 0 0 0 0 0 0 0 0 0 0 0 0 0 0 0 0 0 4 110 252 568 339 135 146 56 5 22 21 31 19 19 17 10 8 2 2
0 0 0 0 0 0 0 0 0 0 0 0 0 0 0 0 0 0 0 0 0 0 0 0 0 0 18 376 566 358 197 158 55 26 12 32 39 30 18 13 4 4 5
0 0 0 0 0 0 0 0 0 0 0 0 0 0 0 0 0 0 0 0 0 0 0 0 0 0 0 0 498 540 292 184 140 55 5 19 32 51 20 10 5 9 6
0 0 0 0 0 0 0 0 0 0 0 0 0 0 0 0 0 0 0 0 0 0 0 0 0 0 0 0 1 539 543 299 187 155 17 1 17 42 25 15 3 7 8
0 0 0 0 0 0 0 0 0 0 0 0 0 0 0 0 0 0 0 0 0 0 0 0 0 0 0 0 0 2 541 514 290 230 108 0 17 38 24 34 10 2 11
0 0 0 0 0 0 0 0 0 0 0 0 0 0 0 0 0 0 0 0 0 0 0 0 0 0 0 0 0 0 4 594 458 256 164 5 13 38 26 30 21 9 4
0 0 0 0 0 0 0 0 0 0 0 0 0 0 0 0 0 0 0 0 0 0 0 0 0 0 0 0 0 0 0 3 677 449 272 20 12 35 25 23 32 16 4
0 0 0 0 0 0 0 0 0 0 0 0 0 0 0 0 0 0 0 0 0 0 0 0 0 0 0 0 0 0 0 0 15 640 405 32 23 27 42 20 26 24 17
0 0 0 0 0 0 0 0 0 0 0 0 0 0 0 0 0 0 0 0 0 0 0 0 0 0 0 0 0 0 0 0 0 241 500 207 60 26 49 22 20 26 18
0 0 0 0 0 0 0 0 0 0 0 0 0 0 0 0 0 0 0 0 0 0 0 0 0 0 0 0 0 1 0 3 0 1 329 378 99 10 48 34 18 32 13
0 0 0 0 0 0 0 0 0 0 0 0 0 0 0 0 0 0 0 0 0 0 0 0 0 0 0 0 0 8 0 3 0 0 1 316 107 30 34 46 23 28 11
0 0 0 0 0 0 0 0 0 0 0 0 0 0 0 0 0 0 0 0 0 0 0 0 0 0 0 0 0 6 5 0 1 0 0 249 145 43 100 66 25 29 24
0 0 0 0 0 0 0 0 0 0 0 0 0 0 0 0 0 0 0 0 0 0 0 0 4 1 0 0 0 4 19 0 0 0 0 258 141 31 124 74 43 27 24
0 0 0 0 0 0 0 0 0 0 0 0 0 0 0 0 0 0 0 0 0 0 1 3 4 2 0 0 0 4 24 20 0 0 0 155 152 50 109 73 29 26 26
0 0 0 0 0 0 0 0 0 0 0 0 0 0 0 0 0 0 0 0 0 2 5 5 1 4 2 0 0 7 17 0 0 0 0 88 186 45 106 26 8 23 14
0 0 0 0 0 0 0 0 0 0 0 0 0 0 0 0 0 0 0 0 0 3 17 2 0 1 1 2 0 0 33 4 0 0 3 35 150 51 73 18 8 16 1
0 0 0 0 0 0 0 0 0 0 0 0 0 0 0 0 0 0 0 0 0 0 4 5 2 0 1 0 1 0 3 0 0 0 3 70 136 43 63 15 5 2 0
0 0 0 0 0 0 0 0 0 0 0 0 0 0 0 0 0 0 0 0 0 1 15 14 10 9 1 1 3 13 58 0 0 0 68 188 98 35 39 11 2 0 0
0 0 0 0 0 0 0 0 0 0 0 0 0 0 0 0 0 0 0 3 11 17 12 8 12 4 2 1 13 11 8 0 1 102 180 128 64 31 23 15 0 0 0
0 0 0 0 0 0 0 0 0 0 0 0 0 0 0 2 30 29 20 20 13 7 8 9 24 18 1 17 12 5 0 0 4 181 201 83 46 21 23 10 0 0 0
0 0 0 0 0 0 0 0 0 0 0 0 0 0 0 0 0 6 13 15 10 17 20 29 29 9 3 0 2 0 0 0 118 320 115 42 21 5 1 0 0 0 0
0 0 0 0 0 0 0 0 0 0 0 0 0 0 0 0 1 2 0 2 0 22 15 12 4 2 0 0 0 0 0 0 56 110 68 15 9 1 2 0 0 0 0
0 0 0 0 0 0 0 0 0 0 0 0 0 0 0 0 0 12 2 3 3 4 5 9 5 1 0 0 0 0 2 0 43 22 4 5 1 1 1 0 0 0 0
0 0 0 0 0 0 0 0 0 0 0 0 0 0 0 3 4 19 6 7 12 0 0 5 3 14 4 0 0 0 1 3 30 6 3 0 2 2 1 3 0 0 0
0 0 0 0 0 0 0 0 0 0 0 0 0 0 6 5 10 6 15 19 1 0 8 0 0 2 27 10 0 0 1 52 3 1 0 0 2 0 1 1 0 0 0
CIN
0 0 0 0 0 0 0 0 0 0 0 0 0 0 0 0 0 0 0 0 0 0 0 -188 -61 -24 0 0 -88 -83 -99 -158 -1 -1 -1 -4 -4 -2 0 0 0 0 0
0 0 0 0 0 0 0 0 0 0 0 0 0 0 0 0 0 0 0 0 0 0 0 0 0 -165 -81 -1 -8 -64 -33 -116 -126 -3 -9 -2 -4 -1 -3 -1 0 0 0
0 0 0 0 0 0 0 0 0 0 0 0 0 0 0 0 0 0 0 0 0 0 0 0 0 0 -240 -51 0 -5 -49 -46 -151 -232 -3 -6 0 -1 -3 -3 0 -1 0
0 0 0 0 0 0 0 0 0 0 0 0 0 0 0 0 0 0 0 0 0 0 0 0 0 0 0 0 -16 -1 -16 -33 -44 -109 -102 -1 -5 0 -4 -6 0 0 0
0 0 0 0 0 0 0 0 0 0 0 0 0 0 0 0 0 0 0 0 0 0 0 0 0 0 0 0 -41 -5 0 -8 -7 -23 -192 -6 -4 -1 -1 -5 -1 0 0
0 0 0 0 0 0 0 0 0 0 0 0 0 0 0 0 0 0 0 0 0 0 0 0 0 0 0 0 0 -45 -3 0 -7 -2 -78 -1 -3 -4 -4 0 -2 -3 0
0 0 0 0 0 0 0 0 0 0 0 0 0 0 0 0 0 0 0 0 0 0 0 0 0 0 0 0 0 0 0 0 0 -1 -17 -1 -2 -1 -4 -1 -1 -2 -3
0 0 0 0 0 0 0 0 0 0 0 0 0 0 0 0 0 0 0 0 0 0 0 0 0 0 0 0 0 0 0 0 0 0 0 -134 0 0 -1 -5 0 -1 -2
0 0 0 0 0 0 0 0 0 0 0 0 0 0 0 0 0 0 0 0 0 0 0 0 0 0 0 0 0 0 0 0 -11 0 0 -66 -1 0 0 -7 -1 0 0
0 0 0 0 0 0 0 0 0 0 0 0 0 0 0 0 0 0 0 0 0 0 0 0 0 0 0 0 0 0 0 0 0 -30 0 -1 -23 0 0 -3 -3 0 0
0 0 0 0 0 0 0 0 0 0 0 0 0 0 0 0 0 0 0 0 0 0 0 0 0 0 0 0 0 0 0 0 0 0 -2 0 -8 -2 0 0 -4 0 -1
0 0 0 0 0 0 0 0 0 0 0 0 0 0 0 0 0 0 0 0 0 0 0 0 0 0 0 0 0 0 0 0 0 0 0 0 -9 -16 0 -43 -1 0 -2
0 0 0 0 0 0 0 0 0 0 0 0 0 0 0 0 0 0 0 0 0 0 0 0 0 0 0 0 0 0 0 0 0 0 0 0 -5 -26 0 -27 -30 0 0
0 0 0 0 0 0 0 0 0 0 0 0 0 0 0 0 0 0 0 0 0 0 0 -2 -3 -1 0 0 0 0 -1 0 0 0 0 0 -11 -55 -1 -9 -27 -15 0
0 0 0 0 0 0 0 0 0 0 0 0 0 0 0 0 0 0 0 0 -30 0 0 -1 0 -1 0 0 -1 -2 -2 0 0 0 0 0 -10 -63 -3 -15 -27 -38 -1
0 0 0 0 0 0 0 0 0 0 0 0 0 0 0 0 0 0 0 0 -2 -16 0 0 -1 -1 -1 -1 0 0 -1 0 0 0 0 -2 -19 -70 -7 -23 -14 -38 -5
0 0 0 0 0 0 0 0 0 0 0 0 0 0 0 0 0 0 0 0 0 -12 0 0 0 0 0 0 0 0 0 0 0 0 0 -17 -34 -95 -31 -16 -14 -55 -17
0 0 0 0 0 0 0 0 0 0 0 0 0 0 0 0 0 0 0 0 0 -3 0 0 0 0 0 -1 -4 0 0 0 0 0 0 -12 -33 -61 -62 -25 -21 -32 0
0 0 0 0 0 0 0 0 0 0 0 0 0 0 0 0 0 0 0 0 0 -8 0 0 0 0 0 -10 -37 -10 0 0 0 0 -39 0 -37 -78 -89 -31 -22 -4 0
0 0 0 0 0 0 0 0 0 0 0 0 0 0 0 0 0 0 0 -29 -8 0 0 0 0 0 -10 -41 -2 0 -13 0 0 -65 -5 -2 -60 -121 -33 -36 0 0 0
0 0 0 0 0 0 0 0 0 0 0 0 0 0 0 -20 -7 -2 -3 -5 -4 0 0 0 0 0 -4 -8 -1 -2 0 0 -18 -1 0 -14 -56 -75 -40 -48 0 0 0
0 0 0 0 0 0 0 0 0 0 0 0 0 0 0 0 0 -4 -1 -1 0 0 0 0 0 0 -36 -1 -8 0 0 0 -4 0 -3 -45 -10 -20 0 0 0 0 0
0 0 0 0 0 0 0 0 0 0 0 0 0 0 0 0 -8 -11 0 0 -1 0 0 0 -1 0 0 0 0 0 0 0 -12 -2 -3 -7 -17 0 0 0 0 0 0
0 0 0 0 0 0 0 0 0 0 0 0 0 0 0 0 0 -2 -4 -2 -2 0 0 0 -5 0 0 -16 0 0 0 0 -21 -25 -21 -14 0 0 0 0 0 0 0
0 0 0 0 0 0 0 0 0 0 0 0 0 0 0 -9 -4 0 -3 -1 0 0 0 0 0 0 -1 0 0 -1 0 0 -2 -18 -36 0 0 0 0 0 0 0 0
0 0 0 0 0 0 0 0 0 0 0 -1 -6 -2 -4 -1 0 -2 -2 0 0 0 0 0 0 -9 -4 -8 -2 0 0 -5 -2 -19 0 0 0 0 0 0 0 0 0
Wind_Speed
20 21 21 22 24 24 26 27 27 27 27 27 27 27 27 28 28 28 27 29 30 31 31 31 32 30 9 6 5 7 6 8 3 8 13 13 12 11 7 7 5 5 6
19 20 21 22 24 25 26 27 28 27 28 28 29 28 28 28 29 30 30 30 32 32 33 33 34 34 31 13 9 7 6 16 10 6 11 15 15 14 7 7 5 4 4
19 19 20 22 24 25 25 27 28 27 28 29 29 30 29 30 30 29 30 30 32 33 35 36 37 37 36 36 16 12 9 8 14 13 10 12 15 16 9 7 5 5 3
18 19 20 22 23 25 25 26 27 28 29 30 30 31 32 31 30 31 31 32 33 34 37 38 39 40 40 39 37 17 15 13 10 13 15 10 15 16 12 9 7 6 3
17 19 20 22 23 24 26 26 27 28 30 31 31 31 34 30 29 32 33 35 35 37 39 41 42 42 42 42 40 37 21 18 15 12 16 13 14 18 16 11 8 7 3
16 18 20 21 22 23 26 25 27 27 28 30 31 32 33 27 31 30 39 38 40 41 41 42 44 43 44 44 43 41 40 25 21 18 16 15 15 18 18 15 9 9 5
15 17 19 20 21 23 24 25 26 27 29 30 32 38 31 25 29 37 39 39 42 44 45 44 45 44 44 45 45 44 40 44 26 23 18 17 16 19 18 19 12 9 6
15 17 19 20 21 23 23 25 26 28 29 31 34 37 37 36 28 46 37 42 44 45 47 48 47 49 47 47 48 47 46 41 39 27 22 19 18 21 19 21 16 11 7
15 16 18 19 20 21 23 24 25 27 31 31 32 34 38 40 51 32 45 42 44 45 46 47 48 48 49 50 50 49 45 47 43 36 25 21 19 21 21 21 17 12 9
15 16 16 18 20 21 22 23 25 27 30 35 33 30 31 37 45 52 44 43 40 41 40 41 44 47 49 51 51 50 46 46 45 46 34 25 21 21 23 23 19 13 10
14 15 16 18 20 21 21 24 25 27 29 32 33 33 34 35 36 41 53 50 41 34 39 40 44 44 46 49 50 49 48 47 43 40 43 30 24 20 24 24 20 14 11
14 14 15 18 20 21 21 23 24 28 30 31 31 31 33 37 39 39 43 42 40 40 39 35 40 39 44 46 50 53 52 47 48 46 44 35 26 21 24 26 20 15 11
14 13 15 18 20 20 21 24 25 29 31 31 32 33 32 32 33 33 37 38 36 38 43 36 35 33 44 45 49 52 51 48 48 46 45 38 29 23 24 26 21 15 12
12 13 15 18 20 21 23 25 27 29 30 32 32 32 32 30 29 29 32 33 37 35 41 38 33 36 45 45 48 51 51 50 49 45 43 42 31 26 25 26 22 16 12
13 14 16 18 20 22 24 26 28 30 31 32 32 32 31 30 28 28 27 26 29 32 45 38 32 33 39 44 47 50 49 50 46 47 47 48 34 29 26 26 23 17 14
12 14 16 18 21 23 25 27 29 30 32 32 32 31 31 29 28 27 25 24 26 27 32 27 24 37 42 45 46 50 50 48 51 46 47 48 36 30 29 27 25 18 14
12 14 16 19 21 24 26 28 30 31 32 32 32 32 31 28 27 27 25 25 26 25 28 26 26 22 45 44 45 49 49 48 45 48 48 45 37 31 31 29 25 19 15
12 15 17 19 21 24 26 29 31 32 32 33 32 32 31 29 27 25 25 25 25 26 26 24 25 20 43 43 44 48 50 48 42 48 50 45 37 32 31 29 24 19 15
14 16 17 18 21 24 28 29 31 31 31 31 31 31 29 29 27 26 28 27 27 21 24 21 24 20 31 38 44 47 45 48 45 48 48 42 37 32 30 29 24 20 16
14 16 16 19 22 25 28 30 30 30 30 30 30 29 28 28 27 26 32 27 27 22 20 23 19 15 33 36 41 48 47 40 44 45 45 40 36 32 31 29 25 20 16
14 16 17 19 22 26 28 30 30 30 30 31 31 29 29 28 26 29 38 33 32 17 27 28 32 24 30 35 44 47 42 36 41 42 41 39 36 34 34 31 25 21 17
15 16 17 18 24 27 28 31 30 30 32 31 33 32 31 30 26 29 39 20 23 34 30 24 33 30 29 33 36 42 39 37 43 41 40 38 36 36 36 32 26 21 17
15 16 17 20 24 26 28 30 30 31 30 32 34 34 32 29 29 33 41 34 35 32 33 31 28 28 32 35 37 43 40 42 39 44 40 38 36 36 36 32 25 21 18
14 15 19 22 25 26 28 30 29 31 31 33 34 32 31 30 28 39 39 37 37 36 26 28 28 28 31 31 35 39 40 37 34 39 37 37 35 36 35 31 26 21 18
14 16 20 23 25 26 28 28 30 31 33 33 31 30 29 29 33 36 36 36 37 31 29 26 29 31 33 31 32 37 36 35 40 40 37 34 36 34 35 32 28 22 19
14 17 20 23 25 25 27 27 31 32 31 32 31 29 27 28 34 33 34 34 36 30 28 24 23 26 32 33 38 36 34 38 36 40 40 37 38 37 36 32 29 25 20
Wind_Direction
4 360 354 352 352 353 353 353 353 352 349 346 346 344 339 335 332 329 327 323 321 318 314 314 313 315 303 252 222 203 279 294 279 294 287 288 292 299 316 330 355 18 54
3 358 353 350 349 350 349 350 350 350 348 345 342 342 340 338 334 328 325 322 321 319 316 312 309 305 307 295 247 238 231 280 283 271 284 283 283 288 298 320 336 356 39
359 356 351 347 347 346 346 347 348 349 345 343 341 339 338 336 334 333 331 326 321 317 314 310 305 302 299 296 284 251 249 245 273 275 272 278 277 279 281 300 309 316 28
355 351 347 345 345 344 344 345 346 344 342 339 338 337 335 333 332 332 330 328 324 319 312 308 304 299 294 292 290 271 258 262 238 262 266 266 271 271 275 285 290 297 343
350 347 345 343 343 343 342 343 343 343 340 337 337 337 333 333 335 333 331 327 323 319 314 308 302 297 292 287 287 281 266 260 256 245 260 257 261 264 269 273 279 285 312
346 344 343 341 342 342 340 342 342 343 341 338 336 334 331 332 333 335 327 324 320 316 313 308 303 296 290 284 281 282 271 262 257 256 251 252 256 257 262 265 267 276 292
342 342 340 341 342 340 341 342 341 340 339 339 334 331 332 331 329 331 327 325 322 318 313 308 302 296 288 282 278 275 277 261 254 255 245 244 250 252 255 259 261 265 278
336 337 338 339 339 339 340 340 340 337 337 338 334 332 328 327 324 326 328 325 322 320 315 309 301 294 286 280 274 271 268 272 256 250 244 240 245 250 249 253 258 259 268
331 334 337 338 339 340 339 339 339 337 334 336 336 333 329 325 324 329 326 326 325 322 319 313 304 293 284 278 270 265 266 260 262 249 241 237 241 246 245 247 251 255 260
330 334 338 339 339 338 337 338 338 337 336 332 334 334 331 328 327 324 330 328 328 326 324 320 312 299 283 275 266 261 262 259 258 247 243 233 237 240 240 243 246 246 253
328 332 335 337 336 336 335 335 335 335 335 333 333 333 331 330 328 324 323 326 327 328 323 320 316 306 289 272 262 255 256 255 256 256 242 233 232 232 237 238 240 240 244
325 328 332 334 334 334 333 334 334 333 333 333 333 331 330 329 328 326 325 325 324 324 324 325 319 310 294 273 260 252 250 254 250 250 247 232 228 226 232 233 234 234 237
322 324 329 331 332 333 332 332 331 331 332 332 332 330 328 326 327 326 325 324 322 323 321 324 322 314 294 275 258 248 249 249 246 246 244 229 224 222 227 229 229 226 230
319 325 326 328 330 331 331 331 330 330 331 331 331 330 328 325 325 325 324 324 322 321 321 324 321 315 292 275 256 248 243 243 243 243 241 227 222 220 223 224 225 221 224
317 320 323 326 328 329 329 330 330 331 331 332 330 329 328 326 325 323 321 319 320 317 281 326 323 319 302 275 256 245 237 238 238 240 235 226 220 220 220 219 221 217 221
315 320 323 326 327 328 329 330 331 332 332 332 331 330 328 327 324 324 321 318 317 314 287 320 313 314 301 271 254 241 237 237 237 236 233 224 217 218 218 217 219 214 213
316 320 323 326 327 328 329 330 331 332 332 332 332 330 329 328 326 325 322 319 317 314 309 300 317 311 288 268 248 235 229 228 233 232 229 221 215 214 216 216 216 206 209
317 321 325 326 328 329 331 331 332 332 333 333 333 331 330 331 328 326 323 320 318 317 312 298 310 295 267 258 239 234 228 224 235 231 223 219 212 211 213 211 207 203 206
317 322 325 327 329 331 332 333 333 334 335 334 333 333 332 332 330 328 325 324 324 317 319 306 313 314 269 247 231 221 218 221 234 226 215 211 209 208 208 207 204 201 204
317 321 324 328 330 332 334 335 336 336 336 335 335 334 333 332 331 329 325 327 329 324 296 266 320 312 258 238 226 213 207 223 223 215 210 208 206 204 205 204 201 199 203
317 322 326 329 332 333 335 337 337 337 337 336 337 339 338 336 333 330 321 329 330 289 271 273 289 300 241 228 218 210 212 219 218 205 204 203 204 205 205 204 202 200 200
319 324 327 331 332 334 336 338 339 339 340 341 339 339 337 335 332 327 319 300 275 272 271 271 281 247 228 222 216 211 221 218 205 203 200 202 202 204 205 207 201 197 200
320 324 328 331 333 335 337 339 340 341 341 340 338 337 337 338 337 324 303 277 277 273 276 277 269 251 229 216 208 205 215 215 210 198 197 200 200 203 205 205 198 195 203
318 324 327 331 333 336 339 340 341 342 340 338 337 336 337 336 336 299 292 286 286 283 276 278 273 253 230 220 214 210 207 217 194 194 195 199 198 202 203 206 201 197 201
320 324 329 331 333 336 340 341 343 342 339 339 340 339 338 336 325 290 289 287 291 279 281 273 273 243 223 227 217 212 216 210 190 192 197 198 200 198 206 206 209 204 205
320 328 330 332 334 338 342 344 345 345 345 344 345 344 344 340 288 287 288 293 294 277 278 269 272 236 226 221 213 219 219 203 190 194 201 204 196 201 205 211 210 212 214